Weather History for Marshfield, WI

Change the Weather History Date:

Wednesday, April 25, 2012

  Actual Average Record
Temperature  
Mean Temperature 48 °F -  
Max Temperature 51 °F 62 °F 84 °F (1948)
Min Temperature 44 °F 37 °F 20 °F (1934)
Degree Days  
Heating Degree Days 18    
Moisture  
Dew Point 37 °F    
Average Humidity 70    
Maximum Humidity 79    
Minimum Humidity 44    
Precipitation  
Precipitation 0.03 in - - ()
Sea Level Pressure  
Sea Level Pressure 29.71 in    
Wind  
Wind Speed 8 mph (ESE)    
Max Wind Speed 14 mph    
Max Gust Speed -    
Visibility 10 miles    
Events Rain    
Averages and records for this station are not official NWS values.
T = Trace of Precipitation, MM = Missing Value Source: NWS Daily Summary

Daily Weather History Graph

Daily Weather History Graph

Search for Another Location

Airport:

Trip Planner

Search our weather history database for the weather conditions in past years. The results will help you decide how hot, cold, wet, or windy it might be!

Date:

Astronomy

Apr. 25, 2012 Rise Set
Actual Time 5:59 AM CDT 7:58 PM CDT
Civil Twilight 5:27 AM CDT 8:30 PM CDT
Nautical Twilight 4:49 AM CDT 9:09 PM CDT
Astronomical Twilight 4:06 AM CDT 9:51 PM CDT
Moon 8:38 AM CDT (4/25) No Moon Set
Length of Visible Light 15h 02m
Length of Day
13h 59m
Waxing Crescent, 17% of the Moon is Illuminated
Apr 25
Waxing Crescent
Apr 29
First Quarter
May 5
Full
May 12
Last Quarter
May 20
New

Hourly Weather History & Observations

Time (CDT) Temp. Windchill Dew Point Humidity Pressure Visibility Wind Dir Wind Speed Gust Speed Precip Events Conditions
12:54 AM 51.1 °F - 30.0 °F 44% 29.68 in 10.0 mi East 8.1 mph - N/A   Mostly Cloudy
1:54 AM 50.0 °F - 32.0 °F 50% 29.70 in 10.0 mi East 5.8 mph - N/A   Overcast
2:54 AM 48.9 °F - 30.9 °F 50% 29.67 in 10.0 mi ESE 9.2 mph - N/A   Mostly Cloudy
3:54 AM 48.0 °F - 30.9 °F 52% 29.73 in 10.0 mi Calm Calm - N/A   Overcast
4:54 AM 46.0 °F 43.1 °F 36.0 °F 68% 29.73 in 10.0 mi East 5.8 mph - 0.00 in Rain Light Rain
5:54 AM 44.1 °F 39.0 °F 36.0 °F 73% 29.71 in 10.0 mi East 9.2 mph - 0.01 in Rain Light Rain
6:54 AM 45.0 °F 40.1 °F 37.0 °F 74% 29.71 in 10.0 mi SE 9.2 mph - 0.00 in   Overcast
7:54 AM 44.1 °F 38.6 °F 37.0 °F 76% 29.69 in 10.0 mi East 10.4 mph - 0.01 in Rain Light Rain
8:54 AM 44.1 °F 39.0 °F 37.9 °F 79% 29.70 in 10.0 mi SE 9.2 mph - 0.00 in Rain Light Rain
9:54 AM 44.1 °F 38.1 °F 37.9 °F 79% 29.68 in 10.0 mi SSE 11.5 mph - 0.00 in   Overcast
10:54 AM 46.0 °F 42.5 °F 37.0 °F 71% 29.72 in 10.0 mi SE 6.9 mph - N/A   Overcast
11:39 AM 46.4 °F 42.9 °F 37.4 °F 71% 29.71 in 10.0 mi East 6.9 mph - N/A   Overcast
11:54 AM 46.0 °F 40.6 °F 39.0 °F 76% 29.73 in 7.0 mi East 11.5 mph - 0.00 in Rain Light Rain
12:54 PM 46.0 °F 39.9 °F 39.0 °F 76% 29.71 in 10.0 mi East 13.8 mph - 0.01 in   Overcast
1:22 PM 46.4 °F 41.1 °F 39.2 °F 76% 29.70 in 10.0 mi East 11.5 mph - N/A   Overcast
2:16 PM 48.2 °F - 39.2 °F 71% 29.69 in 10.0 mi East 12.7 mph - N/A   Overcast
2:54 PM 48.0 °F - 41.0 °F 77% 29.71 in 10.0 mi East 11.5 mph - N/A   Overcast
3:54 PM 48.9 °F - 41.0 °F 74% 29.70 in 10.0 mi ESE 10.4 mph - N/A   Overcast
4:54 PM 50.0 °F - 42.1 °F 74% 29.70 in 10.0 mi East 10.4 mph - N/A   Overcast
5:54 PM 50.0 °F - 41.0 °F 71% 29.71 in 10.0 mi ESE 10.4 mph - N/A   Overcast
6:54 PM 50.0 °F - 39.9 °F 68% 29.70 in 10.0 mi East 11.5 mph - N/A   Scattered Clouds
7:54 PM 48.0 °F - 37.9 °F 68% 29.71 in 10.0 mi East 4.6 mph - N/A   Mostly Cloudy
8:54 PM 46.9 °F - 37.9 °F 71% 29.72 in 10.0 mi East 4.6 mph - N/A   Overcast
9:54 PM 46.9 °F - 37.9 °F 71% 29.73 in 10.0 mi Calm Calm - N/A   Overcast
10:45 PM 46.4 °F - 37.4 °F 71% 29.73 in 10.0 mi Calm Calm - N/A   Overcast
10:54 PM 46.9 °F - 39.0 °F 74% 29.74 in 10.0 mi Calm Calm - N/A   Overcast
11:54 PM 46.0 °F 44.8 °F 39.0 °F 76% 29.75 in 10.0 mi NW 3.5 mph - N/A   Overcast